Zurück zum Katalog

STARLINK-1417

AktivKommunikationVLEO
NORAD 45693·PAYLOAD·🇺🇸 United States

Gestartet Jun 4, 2020 von Cape Canaveral Space Force Station

Loading…

Nächste Überflüge (nächste 24 Stunden)

TLE

AktuellSource: CelesTrak SupGP

Epoche: Sep 15, 2026, 02:11 UTC

1 45693C 20035AN  26258.09145833  .00004385  00000+0  19395-3 0  2580
2 45693  53.0443 269.9806 0004059  87.2869 331.6166 15.21154904    15

Verfolge STARLINK-1417 in Echtzeit mit AllMySat

Download on the App Store